This is the latest recevied weather packets stored in our database for station/object 9W8AKN-L. If no packets are shown the sender has not sent any weather packets the latest 10 day(s).
| Time | Temp. | Humidity | Pressure | Rain* | Wind** | Luminosity | Snow |
|---|---|---|---|---|---|---|---|
| 1778061036 | 30.56° C | 73% | 1006.5 hPa | - | - | - | - |
| 1778060136 | 31.11° C | 72% | 1006 hPa | - | - | - | - |
| 1778059236 | 31.11° C | 74% | 1005.8 hPa | - | - | - | - |
| 1778058336 | 31.11° C | 73% | 1005.4 hPa | - | - | - | - |
| 1778056540 | 31.11° C | 76% | 1005.8 hPa | - | - | - | - |
| 1778055640 | 31.11° C | 78% | 1005.6 hPa | - | - | - | - |
| 1778054740 | 30.56° C | 77% | 1005.5 hPa | - | - | - | - |
| 1778053840 | 30.56° C | 73% | 1005.5 hPa | - | - | - | - |
| 1778052940 | 31.11° C | 79% | 1005.8 hPa | - | - | - | - |
| 1778052040 | 31.11° C | 82% | 1005.7 hPa | - | - | - | - |
| 1778051140 | 31.11° C | 82% | 1005.8 hPa | - | - | - | - |
| 1778050240 | 31.11° C | 82% | 1005.9 hPa | - | - | - | - |
| 1778049340 | 31.11° C | 83% | 1006.1 hPa | - | - | - | - |
| 1778048439 | 30.56° C | 83% | 1006.4 hPa | - | - | - | - |
| 1778047539 | 30.56° C | 83% | 1006.7 hPa | - | - | - | - |
| 1778046639 | 30.56° C | 83% | 1006.9 hPa | - | - | - | - |
| 1778045739 | 30.56° C | 83% | 1007.1 hPa | - | - | - | - |
| 1778044839 | 30.56° C | 83% | 1007.3 hPa | - | - | - | - |
| 1778043939 | 30.56° C | 84% | 1007.7 hPa | - | - | - | - |
| 1778043039 | 30.56° C | 85% | 1008 hPa | - | - | - | - |
| 1778042139 | 30.56° C | 84% | 1008.3 hPa | - | - | - | - |
| 1778041239 | 30° C | 84% | 1008.6 hPa | - | - | - | - |
| 1778040338 | 30° C | 84% | 1008.8 hPa | - | - | - | - |
| 1778039438 | 30° C | 83% | 1009 hPa | - | - | - | - |
| 1778038538 | 29.44° C | 83% | 1009.2 hPa | - | - | - | - |
* Rain since midnight (hover to see other rain measurements)
** Current wind speed in m/s (hover to see current wind gust speed)